Location: Katherine
(14.4670°S, 132.2670°E)
Time: 03:40:58
(UTC+09:30)

ISS - Visible Passes

Search period start: 17 October 2018 00:00
Search period end: 27 October 2018 00:00
Orbit: 403 x 408 km, 51.6° (Epoch: 17 October)

Date Brightness Start Highest point End Pass type
(mag) Time Alt. Az. Time Alt. Az. Time Alt. Az.
17 Oct -1.7 19:42:59 10° N 19:43:52 15° N 19:43:52 15° N visible
18 Oct -0.5 05:35:41 10° SSE 05:37:04 12° SE 05:38:27 10° ESE visible
18 Oct -1.5 20:27:11 10° WNW 20:29:16 25° WSW 20:29:16 25° WSW visible
19 Oct -3.8 19:34:51 10° NW 19:38:08 80° SW 19:41:26 10° SE visible
20 Oct -2.3 05:26:34 10° SSW 05:29:41 40° SE 05:32:46 10° ENE visible
21 Oct -0.8 04:35:29 10° S 04:37:41 17° SE 04:39:52 10° E visible
21 Oct -1.0 19:28:06 10° W 19:30:38 20° SW 19:33:12 10° S visible
22 Oct -3.5 05:19:10 11° SW 05:22:07 44° NW 05:25:14 10° NNE visible
23 Oct -1.9 04:31:51 25° NE 04:31:51 25° NE 04:33:24 10° NE visible
